Location: Champs
(48.8539°N, 2.6040°E)
Time: 03:03:53
(UTC+00:00)

Meteor 2-5 Rocket - Pass Details

Date: 26 October 2021
Orbit: 834 x 911 km, 81.2° (Epoch: 30 November)

Event Time Altitude Azimuth Distance (km) Brightness Sun altitude
Rises 05:03:51 0° 188° (S) 3,369 6.8 -14.3°
Reaches altitude 10° 05:06:13 10° 188° (S) 2,443 6.1 -13.9°
Maximum altitude 05:11:45 86° 102° (ESE) 852 3.8 -13.0°
Drops below altitude 10° 05:17:25 10° 13° (NNE) 2,494 6.2 -12.0°
Sets 05:19:52 0° 13° (NNE) 3,445 7.0 -11.6°
